GEFSGL_500_meanwind_234.txt.gz
Wind_Speed
4 5 5 4 5 5 6 6 6 5 6 6 7 7 8 8 8 8 8 9 9 9 9 9 9 10 11 12 12 13 13 13 13 13 13 14 14 15 15 16 16 16 16
4 5 5 5 5 6 6 7 7 6 7 7 7 8 8 9 9 10 9 9 10 10 10 10 10 11 12 13 13 13 13 13 13 13 14 15 15 15 15 16 17 16 17
5 5 6 6 6 7 7 7 7 7 8 8 8 8 9 9 10 11 11 11 11 11 11 11 11 12 12 13 13 14 14 14 14 14 15 15 15 15 16 17 16 17 18
6 6 7 7 7 8 8 8 8 8 9 9 9 9 10 10 11 12 12 11 12 12 12 12 13 13 14 14 14 15 15 15 15 15 16 16 17 17 17 17 17 18 18
8 7 7 8 8 9 9 9 9 10 10 10 10 10 11 12 12 13 13 13 13 13 13 14 14 15 15 16 16 16 16 16 16 17 17 17 18 18 18 18 19 20 20
10 10 10 9 10 10 11 10 11 11 12 12 12 12 12 13 13 14 14 14 14 15 15 15 16 16 17 17 18 18 18 18 18 18 18 19 18 18 19 20 20 21 22
13 13 12 12 12 12 12 12 12 13 13 14 14 14 14 14 15 15 16 16 16 16 17 17 17 18 18 19 19 18 19 19 19 20 20 19 20 20 21 21 21 22 23
15 15 15 14 14 13 14 14 14 15 15 16 16 16 16 16 16 17 17 17 17 18 18 18 18 19 19 20 20 20 20 20 20 20 21 21 21 22 23 23 23 23 24
17 17 17 17 17 16 16 16 16 17 17 18 16 17 18 18 19 18 18 19 19 19 19 19 19 20 21 21 21 21 21 21 21 21 22 22 23 23 23 24 24 24 25
20 20 20 19 19 18 18 17 18 18 19 19 18 19 19 19 20 20 20 20 20 21 21 21 22 22 22 22 22 22 22 23 23 23 23 24 24 24 24 25 25 26 26
22 22 21 21 21 20 20 19 19 20 21 21 21 21 21 21 21 21 22 22 23 23 23 23 23 24 24 24 24 24 25 25 25 25 24 25 25 25 25 26 26 26 26
24 24 24 23 22 21 21 21 22 22 23 23 23 23 22 22 22 23 24 25 25 25 25 25 25 26 26 27 26 27 27 26 26 26 25 26 26 27 27 27 27 27 28
25 25 25 24 23 23 23 23 24 24 25 25 26 25 24 24 25 25 26 26 26 26 27 27 27 27 28 28 28 28 28 27 27 27 27 27 27 28 28 28 28 29 29
25 25 25 25 25 25 25 25 26 26 26 27 27 27 27 26 26 26 27 27 27 27 28 28 28 28 28 29 29 29 29 28 29 29 29 29 29 29 29 30 30 29 29
26 27 27 26 26 25 26 27 27 27 27 28 28 29 29 27 26 27 28 28 28 28 29 29 29 29 29 29 30 29 29 29 29 29 29 29 30 30 31 31 30 29 29
27 28 28 29 28 27 27 27 28 28 28 28 29 29 29 28 28 28 28 29 29 29 30 31 30 30 30 30 30 29 30 30 30 30 30 30 30 31 30 30 30 30 29
30 30 31 30 29 29 28 29 28 28 28 29 30 30 29 30 29 29 29 29 29 30 30 30 31 31 30 30 30 30 30 31 31 31 31 31 31 31 31 30 30 30 30
32 32 33 31 30 29 29 29 29 29 30 31 30 30 30 30 30 29 29 29 29 30 30 30 30 31 31 31 31 31 31 31 31 31 31 31 31 31 30 30 30 30 30
33 33 33 32 30 29 30 30 30 30 31 32 31 31 30 31 31 30 30 31 31 30 30 31 31 31 31 31 32 31 31 31 32 32 32 32 32 31 31 30 30 30 30
33 32 32 31 31 30 31 31 31 31 32 32 31 31 31 31 31 31 30 31 31 31 31 31 31 31 31 32 31 31 31 31 31 31 31 31 31 31 30 30 29 29 29
32 32 32 32 31 31 31 31 31 31 31 31 32 32 31 31 30 30 30 30 31 31 31 31 31 31 31 31 31 31 30 30 30 31 31 30 30 30 30 29 29 29 29
31 31 32 32 32 32 32 32 31 31 31 31 31 31 31 30 29 29 29 29 30 30 30 30 31 31 30 30 30 30 31 30 30 29 30 30 30 30 29 29 29 29 29
32 33 33 33 33 32 32 32 32 32 32 32 32 32 30 30 28 29 28 29 30 30 30 30 31 30 30 30 30 31 30 30 29 29 29 29 29 29 29 29 29 29 29
33 33 33 32 32 32 32 32 32 33 33 33 33 31 30 29 29 29 29 30 30 30 30 30 30 31 31 30 30 30 30 29 29 29 29 29 29 29 29 29 29 29 29
32 32 32 32 32 33 33 33 32 32 32 32 32 32 30 30 30 30 30 30 30 30 31 31 30 30 30 30 30 30 30 29 28 28 29 29 29 29 28 29 29 29 29
31 32 32 32 32 32 33 33 33 32 32 31 31 31 30 30 30 30 30 30 30 31 31 31 30 30 30 30 30 30 30 29 28 28 28 28 28 28 28 28 28 28 29

GEFSGL_500_meanwind_240.txt.gz
Wind_Speed
2 3 3 3 3 2 2 4 5 5 6 6 6 7 8 8 8 9 9 10 10 10 11 11 11 12 12 12 13 13 14 14 14 14 14 15 15 16 16 16 17 17 18
4 4 4 4 3 4 4 4 5 6 6 7 7 8 9 9 9 10 10 10 11 11 12 12 12 13 13 13 14 14 15 14 14 14 15 16 16 17 17 18 18 19 19
6 6 6 6 5 6 5 5 6 7 7 7 8 9 10 10 11 11 11 11 11 11 12 12 13 13 13 14 15 15 15 15 15 16 16 16 17 18 18 19 19 20 20
8 8 9 8 7 7 7 7 7 7 8 9 9 10 10 11 12 12 12 12 12 13 13 14 14 14 14 15 15 16 16 16 16 17 17 17 18 19 19 19 20 21 21
11 11 10 10 9 9 9 9 9 9 10 10 11 11 12 13 13 13 13 14 14 15 15 15 15 15 16 16 17 17 17 17 18 18 19 19 19 20 20 20 21 21 22
14 13 13 13 12 12 12 11 11 12 12 13 13 14 14 14 15 15 16 15 16 16 16 16 17 18 18 18 19 18 18 19 19 19 20 20 21 21 21 21 22 22 23
17 16 16 16 15 15 15 14 14 15 15 15 16 16 16 16 16 16 17 17 17 17 17 18 19 19 20 20 20 20 20 20 20 21 21 22 22 23 23 23 23 24 24
20 19 19 19 19 18 17 17 17 17 17 17 17 17 17 17 18 18 18 18 18 19 19 19 20 20 20 21 21 21 21 21 22 22 22 23 23 23 24 24 25 26 26
22 21 21 21 20 20 19 19 19 19 19 19 20 20 20 20 20 20 20 20 20 20 21 21 22 22 23 23 23 23 23 23 23 23 23 24 24 25 25 25 26 27 27
23 23 24 24 23 22 21 21 21 21 21 21 21 22 22 22 23 23 22 22 22 23 23 23 24 24 25 25 24 24 24 25 25 25 25 25 26 26 26 26 27 28 28
25 25 25 24 24 23 22 23 24 24 24 23 23 23 23 23 24 24 24 24 24 25 25 25 25 25 26 26 26 25 26 26 26 27 27 27 27 27 28 28 29 29 29
26 26 25 25 25 25 25 25 26 26 25 25 25 25 25 25 25 25 26 26 26 26 26 26 26 26 27 27 28 28 28 28 28 29 29 28 28 28 28 29 30 30 30
27 27 26 26 26 26 27 27 27 26 26 27 27 27 26 26 26 26 26 26 26 26 26 27 27 28 28 29 29 29 29 30 30 30 29 29 29 29 29 30 30 30 30
28 28 27 27 27 27 27 27 26 27 27 28 28 28 27 27 27 27 27 27 27 28 28 28 29 29 30 30 30 30 30 30 31 30 30 30 30 30 30 30 31 31 31
29 28 28 28 28 28 27 28 28 28 28 28 28 28 29 28 28 28 28 28 29 29 29 29 30 30 31 31 31 31 31 31 31 31 31 32 32 32 32 32 32 32 32
29 29 29 29 30 30 29 28 28 29 28 29 28 29 29 29 29 29 29 29 29 30 30 30 30 31 31 32 31 31 31 31 32 32 32 32 32 32 32 32 32 32 32
30 30 30 31 30 30 30 30 29 30 30 30 29 29 29 29 30 30 31 31 30 30 31 31 31 32 32 33 32 31 32 32 32 32 32 32 32 33 33 32 31 31 31
32 31 31 32 31 31 31 32 32 31 31 30 30 30 30 30 31 31 32 31 31 31 31 32 32 32 33 33 32 32 32 33 33 33 32 32 32 32 31 31 31 31 32
32 32 32 32 32 33 33 33 33 33 32 32 32 31 31 31 31 32 33 32 32 32 32 32 32 33 33 33 32 32 33 33 33 32 31 31 31 30 30 31 31 31 31
31 31 32 33 34 34 34 34 34 34 33 33 33 32 33 33 34 34 34 34 33 33 33 33 32 33 34 33 32 33 33 32 32 31 31 30 30 30 31 32 32 31 31
31 32 32 32 33 33 34 34 34 34 33 34 33 34 35 35 35 35 35 34 33 33 33 33 33 33 33 33 33 33 33 33 32 32 31 31 31 31 32 32 32 32 31
31 31 32 32 33 33 33 34 34 34 33 34 34 35 35 35 35 35 35 35 34 34 34 34 34 34 34 33 33 33 33 33 33 32 32 32 32 31 31 32 31 31 30
31 32 33 33 33 34 34 35 34 34 34 34 35 35 35 36 36 36 35 35 35 35 35 35 34 33 33 32 33 33 33 32 32 32 31 31 31 31 31 32 31 31 30
30 31 32 33 33 34 35 34 34 33 34 34 34 34 35 35 35 35 35 35 35 35 35 34 33 33 32 33 32 32 32 31 31 32 32 32 32 32 32 31 31 31 30
30 31 32 32 33 33 32 32 32 33 33 33 34 34 35 35 35 35 35 34 34 35 34 33 33 32 32 32 32 32 32 31 32 32 32 32 32 32 32 31 30 30 30
30 31 32 32 31 31 30 30 31 31 31 32 33 34 35 35 35 35 34 34 34 34 33 32 32 32 32 32 32 32 32 32 32 32 32 32 32 31 31 30 30 30 29

GEFSGL_500_meanwind_246.txt.gz
Wind_Speed
4 4 4 4 5 5 5 5 5 4 2 3 5 5 6 6 7 7 8 8 9 9 10 10 10 11 12 12 13 13 13 13 13 14 14 14 14 15 15 15 16 16 16
6 6 6 6 6 7 6 6 6 5 5 5 6 7 7 8 8 9 9 9 10 10 11 11 11 12 12 13 14 14 14 14 14 14 14 15 15 16 16 16 17 17 17
8 7 8 8 8 9 8 8 8 8 7 7 7 8 9 9 10 10 11 11 12 12 12 12 12 12 13 14 15 15 15 15 15 15 15 16 17 17 18 18 19 19 19
10 10 10 11 11 11 10 10 10 9 9 9 10 10 11 11 12 12 13 13 13 14 13 14 14 14 14 15 16 16 16 16 16 16 16 17 18 18 19 19 20 20 20
12 12 12 12 13 13 12 11 11 12 12 12 12 13 13 13 13 14 15 15 15 15 15 15 16 16 16 17 17 17 17 17 18 18 18 19 19 20 20 21 21 21 21
15 15 15 14 14 14 14 14 14 14 14 14 14 15 15 16 16 16 16 17 17 17 17 17 17 18 18 19 19 19 19 19 19 20 20 20 21 21 21 21 22 22 22
17 17 17 17 17 16 16 16 16 17 17 17 17 17 18 17 18 18 19 19 18 18 19 19 19 20 20 21 21 20 20 20 21 21 21 21 22 22 23 23 22 23 23
20 19 20 19 18 18 18 18 18 19 19 19 19 19 19 19 19 19 20 20 20 20 20 21 21 21 21 22 21 21 21 21 21 22 22 22 22 23 23 23 23 24 24
21 21 21 20 20 20 20 20 20 20 20 20 21 21 21 21 21 21 22 22 22 22 22 22 22 23 23 23 23 23 23 24 24 24 24 24 24 25 25 25 25 26 26
23 23 22 22 22 22 22 22 22 21 21 22 22 22 22 23 24 24 25 24 24 24 24 24 24 23 24 24 25 25 25 25 25 26 26 26 26 26 26 26 26 27 28
24 24 24 24 24 24 24 23 23 23 23 23 24 25 25 25 25 26 26 26 26 26 25 25 25 25 25 25 25 25 25 26 26 27 27 27 27 27 27 27 28 28 29
26 26 26 26 26 26 26 25 25 24 25 25 25 26 27 27 27 27 26 26 26 26 26 26 25 26 26 26 26 26 27 27 27 28 28 28 28 28 29 29 30 30 31
27 27 27 27 28 28 28 27 26 26 26 26 27 27 28 28 28 28 28 28 29 28 27 27 27 27 27 28 28 28 28 28 29 29 29 30 30 30 30 30 31 31 32
28 29 29 28 28 28 28 28 28 27 27 27 28 29 29 30 30 30 30 30 30 30 29 29 29 29 29 29 29 30 31 31 31 31 31 31 31 31 31 32 32 32 32
29 29 29 29 28 28 28 28 28 28 29 29 30 31 31 31 31 31 31 31 30 31 30 31 31 31 31 31 31 31 32 32 32 32 31 31 31 32 32 32 32 32 32
29 29 29 29 29 29 29 29 29 29 29 30 31 32 32 31 31 31 31 31 31 31 31 31 31 32 32 32 32 32 32 32 32 32 33 33 32 32 32 31 32 32 32
30 30 30 30 30 30 30 30 30 31 31 32 32 32 32 32 31 31 31 31 31 31 31 31 31 32 32 32 33 33 33 33 34 33 33 33 32 32 31 31 31 31 31
31 31 31 32 31 31 32 31 31 32 32 32 32 33 34 34 33 31 31 31 31 31 31 32 32 32 32 32 32 33 33 33 33 33 33 33 32 32 31 30 30 30 30
31 32 32 32 32 31 32 32 32 33 33 33 33 33 33 33 32 32 32 32 32 32 32 32 33 33 33 33 33 33 33 34 34 34 33 32 31 31 31 31 29 29 30
32 32 32 32 32 32 32 32 32 32 32 33 33 33 33 32 32 32 33 33 33 33 32 33 33 33 33 33 33 33 33 34 34 33 33 31 31 30 30 30 29 29 29
32 32 32 32 32 31 32 32 32 32 32 32 32 32 32 32 33 33 33 34 34 34 33 33 33 34 34 34 34 34 34 34 33 33 32 31 30 30 30 30 30 30 31
33 33 32 31 31 31 31 31 32 32 32 32 32 33 33 34 34 34 34 34 34 34 33 34 34 34 34 33 33 34 35 34 33 33 31 30 30 30 30 31 31 31 31
32 31 30 30 29 29 29 30 31 31 32 32 33 33 34 33 33 33 34 34 34 34 34 34 34 34 33 32 33 34 34 34 33 32 31 31 31 31 31 32 32 32 31
31 30 30 30 30 30 30 30 31 31 31 32 33 33 33 33 33 33 33 34 34 33 34 33 33 33 32 32 32 33 33 33 32 32 32 32 32 32 32 32 32 32 31
28 28 28 28 29 29 29 30 30 31 31 32 33 33 33 34 34 33 34 34 33 33 33 33 33 32 32 32 32 31 31 32 32 32 32 32 32 32 32 32 31 31 30
26 26 27 27 28 29 29 30 30 31 31 32 32 33 33 34 34 33 33 32 32 32 32 33 33 32 31 31 31 31 32 32 32 31 31 31 31 31 30 30 30 30 30

GEFSGL_500_meanwind_252.txt.gz
Wind_Speed
8 8 7 7 7 7 7 7 7 8 8 9 8 8 9 9 9 10 10 10 11 11 11 12 12 13 13 14 14 14 15 15 15 15 15 15 15 15 15 16 16 16 16
9 9 8 8 8 7 7 7 8 9 10 10 9 9 9 10 10 10 10 11 12 12 12 13 13 14 15 15 15 16 16 15 15 16 16 16 16 16 17 18 18 18 18
10 11 10 10 9 9 8 8 9 9 10 10 10 10 10 11 11 12 11 11 13 13 14 14 14 15 15 16 17 17 17 17 17 17 17 17 18 18 19 19 19 20 19
11 12 10 11 10 10 9 9 9 10 11 11 11 12 12 12 12 13 13 13 14 14 15 16 16 16 17 17 18 19 19 19 19 19 19 19 19 20 21 21 21 21 20
13 12 12 12 12 11 11 11 11 11 12 12 12 12 13 13 14 14 14 15 16 16 17 18 18 19 18 18 18 19 21 21 21 21 21 21 21 21 22 22 22 22 22
14 14 14 14 14 13 13 13 14 14 13 14 14 14 14 15 15 16 16 17 17 18 19 19 19 20 20 20 21 21 21 22 22 22 22 22 22 22 23 23 23 24 24
17 17 16 16 16 16 15 15 15 15 16 15 16 15 15 15 16 17 18 18 19 19 20 21 21 21 21 22 22 23 22 23 23 23 24 24 24 24 24 24 24 25 26
19 19 19 18 18 17 17 17 17 17 18 17 17 17 17 17 17 18 19 20 21 21 22 22 23 23 23 23 24 24 24 24 25 25 24 24 25 25 26 26 26 26 26
21 21 20 20 18 18 18 18 18 19 19 19 19 19 19 19 20 20 21 22 23 24 24 24 24 24 24 25 25 25 26 26 26 27 26 26 26 26 26 27 26 27 27
22 23 22 20 19 19 19 20 21 21 21 21 21 21 21 22 22 23 24 25 25 25 26 25 25 26 26 26 26 27 27 27 28 28 28 27 27 27 27 27 27 27 27
24 24 23 22 22 22 22 22 23 23 23 23 23 23 24 25 25 25 26 27 27 27 28 27 27 27 27 28 28 28 28 28 28 28 28 28 28 28 28 28 28 28 28
25 25 24 23 23 24 25 25 25 25 25 25 25 25 25 26 27 27 27 28 28 28 28 29 29 30 29 30 30 30 30 30 29 29 29 29 29 29 29 29 29 29 29
27 27 26 26 26 26 26 27 26 26 27 26 26 26 26 27 28 28 29 29 30 30 30 31 31 30 30 31 31 31 30 30 30 31 31 30 30 29 30 30 30 30 29
29 28 28 28 28 28 27 27 27 27 27 27 28 28 28 29 29 30 31 31 31 31 32 33 32 31 31 30 31 31 32 31 32 32 31 31 31 30 30 30 30 30 29
29 29 29 29 28 28 28 28 29 29 29 29 29 30 30 31 32 33 33 32 33 33 33 33 33 33 31 31 31 31 32 32 32 32 32 32 32 32 32 31 30 30 29
30 30 29 29 30 30 30 30 30 30 31 31 31 31 32 32 33 33 33 33 33 33 33 33 33 32 32 31 31 32 32 32 32 32 32 33 32 31 31 30 30 30 30
30 30 30 30 31 31 31 32 32 31 32 32 32 33 33 34 34 34 34 33 33 33 33 32 32 31 31 32 32 32 32 31 31 32 32 32 32 31 31 30 30 31 31
30 30 30 30 31 31 32 32 32 32 32 33 32 33 34 34 33 32 32 32 33 33 33 33 32 32 32 32 32 32 32 32 32 32 32 32 32 32 32 31 31 32 32
31 31 31 31 31 32 32 32 32 32 33 33 33 33 33 33 32 32 32 32 33 33 33 32 32 32 32 32 32 32 33 33 33 33 33 33 33 32 32 32 32 31 31
30 30 31 31 32 32 32 32 33 33 33 33 33 33 32 32 32 32 32 33 34 34 33 33 34 33 33 33 33 33 33 34 34 33 33 33 33 33 32 32 32 31 31
30 31 31 32 32 32 33 33 33 33 33 33 33 32 33 33 33 34 34 34 34 35 34 34 34 34 34 34 34 34 34 34 34 33 33 33 34 33 32 32 32 32 32
31 31 32 32 32 33 33 33 33 33 33 33 32 33 33 34 34 34 35 36 35 34 34 34 33 34 34 34 34 35 34 34 34 34 34 34 34 34 33 33 32 32 32
31 32 32 33 33 32 32 32 33 33 33 34 34 33 34 34 35 35 35 35 34 34 34 34 34 34 34 35 35 36 35 35 35 35 35 35 34 34 33 33 33 33 33
31 31 32 32 32 33 32 32 33 33 34 34 34 34 34 34 34 35 35 35 34 34 34 34 35 35 35 36 36 36 36 35 35 35 34 33 33 33 33 33 32 32 32
31 32 31 32 32 32 31 32 33 33 34 34 34 34 34 34 35 36 35 35 35 35 34 34 34 35 36 37 37 37 36 36 35 34 34 34 33 33 33 32 31 31 31
31 31 31 30 30 30 30 30 32 33 34 34 34 34 34 35 35 34 34 34 35 35 35 35 36 36 37 37 36 35 35 35 35 34 34 34 34 33 33 32 31 31 31

GEFSGL_500_meanwind_258.txt.gz
Wind_Speed
4 4 4 4 4 4 4 4 4 3 3 3 3 4 5 5 5 5 5 5 5 6 6 7 7 8 9 10 10 11 11 12 12 13 14 14 14 14 14 14 15 15 15
6 5 5 5 6 5 5 5 4 4 3 3 4 5 5 5 5 5 5 5 6 7 7 8 9 10 10 11 12 12 13 13 13 14 14 15 15 15 15 16 16 17 17
8 7 7 7 7 7 6 6 5 4 4 5 5 5 6 6 6 6 7 7 8 8 9 9 10 11 12 12 13 14 14 15 15 15 15 16 16 16 17 17 18 18 18
9 9 10 9 9 8 7 7 7 6 6 6 7 7 7 8 8 8 9 9 10 10 11 12 13 13 14 15 15 15 15 16 16 17 17 17 17 18 18 18 18 19 19
11 11 12 11 10 9 9 9 9 9 9 8 9 9 9 9 10 11 11 11 12 12 13 14 15 15 16 16 16 17 17 18 18 19 19 19 18 18 19 19 19 19 20
12 12 12 11 11 11 11 11 11 11 11 11 11 11 11 11 12 12 13 13 13 14 15 16 17 17 17 18 18 18 19 19 20 20 20 20 20 20 20 20 20 20 21
13 13 13 13 14 14 14 14 13 14 14 13 13 13 13 14 14 14 14 14 15 16 17 17 18 19 19 19 19 20 21 21 21 21 22 22 21 21 22 22 21 22 23
14 14 14 14 14 13 14 16 16 16 16 16 16 16 16 16 16 16 16 17 17 18 18 19 20 20 21 21 21 22 22 23 23 23 23 23 23 23 23 23 23 23 24
15 15 15 15 15 15 15 16 16 17 17 17 18 18 18 19 19 19 18 18 19 19 20 21 22 22 22 23 23 23 24 24 24 24 24 23 23 23 24 24 24 24 24
16 16 15 15 15 16 17 17 18 19 20 19 20 20 21 21 21 21 21 21 21 21 22 23 23 24 24 24 23 24 24 24 24 24 23 24 24 25 25 25 25 25 25
16 16 17 17 17 18 18 18 19 20 21 21 21 22 22 23 23 23 23 23 22 23 23 24 24 25 25 25 25 25 25 26 26 25 25 25 26 26 27 27 26 27 27
19 18 18 18 18 19 19 19 20 20 20 21 22 22 23 24 24 25 24 24 24 25 25 26 26 26 27 27 27 27 27 27 27 27 27 27 28 28 28 28 29 28 28
21 21 20 20 21 21 21 21 21 21 21 21 22 22 23 24 25 26 26 26 26 27 27 27 27 27 28 28 28 28 28 28 29 29 29 29 30 29 29 30 30 30 30
23 23 23 22 22 22 21 21 22 22 22 22 23 24 25 26 27 27 28 28 28 28 28 28 28 29 30 30 29 30 30 30 31 30 31 31 31 30 30 30 30 30 30
24 24 24 24 23 23 24 24 24 24 24 25 26 27 27 27 28 29 30 30 30 30 30 29 29 31 32 32 32 32 32 32 32 32 31 32 32 32 32 31 31 30 30
25 24 24 24 25 25 25 25 25 26 26 27 28 28 28 29 29 30 30 31 31 31 31 30 31 32 32 33 33 33 33 33 33 33 32 32 32 32 32 32 31 30 30
26 25 24 25 25 25 25 26 27 28 28 29 30 30 30 30 30 30 31 31 31 31 30 30 31 32 32 32 33 33 33 33 34 34 33 33 33 32 32 31 31 31 31
27 26 26 26 26 26 27 28 28 29 29 30 30 31 31 31 30 31 31 32 32 32 32 31 31 32 32 32 32 33 33 33 34 34 33 33 33 32 32 32 32 32 32
28 28 27 28 28 28 29 30 30 30 30 30 30 30 31 31 31 31 32 32 32 32 32 32 32 32 32 33 34 33 33 33 33 33 33 33 33 33 33 33 33 32 33
28 28 28 29 30 30 30 30 30 30 31 31 30 30 30 30 31 31 31 31 32 33 33 33 32 32 33 33 33 33 32 33 33 33 33 33 33 33 34 33 33 32 32
28 28 29 30 30 30 30 30 30 31 31 31 30 30 30 30 31 31 31 32 33 33 34 33 33 33 32 32 33 32 32 32 32 32 33 34 34 34 34 33 33 32 32
30 30 30 30 30 31 31 30 30 31 30 30 29 30 30 30 31 32 31 31 31 32 32 31 31 31 32 32 33 33 32 32 32 32 33 32 31 32 33 33 32 32 32
30 30 29 29 30 31 30 30 30 30 31 31 30 30 30 31 31 31 31 31 31 31 31 31 32 33 33 34 34 34 33 32 32 32 32 32 32 32 32 32 32 32 31
30 29 29 30 30 30 30 30 31 31 32 32 31 30 30 31 30 31 31 31 31 32 32 32 32 33 33 33 33 33 33 32 32 32 32 32 32 32 32 32 31 30 30
31 31 31 31 31 31 30 31 31 31 31 31 30 30 30 30 30 31 31 31 31 32 32 33 33 33 33 33 33 33 33 33 32 32 32 32 32 32 32 30 30 29 29
32 32 31 31 30 30 30 30 30 31 31 31 30 30 29 29 29 30 31 32 32 33 33 33 34 34 33 33 33 33 33 34 34 33 34 34 33 32 31 30 30 29 29